Theta_e
335 337 338 341 343 345 343 345 346 346 345 346 346 346 348 345 338 338 340 340 347 349 350 349 348 348 349 350 349 347 347 346 345
330 333 334 337 339 343 344 344 345 345 345 345 346 347 345 340 336 336 337 340 347 348 349 348 348 348 349 348 348 347 346 345 343
326 329 334 336 338 341 343 344 344 344 344 344 345 345 341 337 335 335 336 341 345 347 348 349 348 348 348 348 347 346 344 344 343
328 330 332 334 335 337 338 341 343 342 343 344 344 343 340 335 335 337 336 340 346 346 347 347 347 347 347 347 346 345 343 342 344
325 326 332 335 335 336 337 338 340 341 342 342 342 340 339 335 335 335 336 341 345 344 347 345 341 340 344 344 344 345 344 341 344
318 322 327 329 330 334 335 337 338 339 336 337 337 336 337 334 335 335 338 341 344 344 346 342 339 337 340 343 343 344 344 341 342
317 318 321 324 324 326 330 333 334 332 329 331 333 332 333 334 334 335 339 341 343 343 343 342 338 339 339 343 343 343 343 341 343
311 311 314 316 317 317 322 324 326 327 328 329 330 331 332 331 332 335 335 339 341 341 342 342 344 344 342 343 343 343 343 343 344
309 309 308 309 312 310 314 318 323 326 327 327 326 327 329 331 331 330 332 336 339 339 341 341 339 340 339 339 339 341 340 342 342
305 307 307 309 308 308 308 310 315 318 322 325 328 328 328 329 330 330 329 333 335 337 338 340 338 335 334 334 336 338 338 339 340
303 303 304 305 304 305 306 306 308 311 315 317 321 323 326 328 329 329 329 331 332 333 333 335 334 336 334 331 331 332 336 338 339
300 300 301 301 302 302 303 303 305 304 305 307 312 315 319 324 325 328 329 329 329 331 332 333 332 331 332 334 332 332 332 334 338
298 298 298 300 300 299 300 300 301 300 300 301 304 309 313 316 321 325 325 326 328 328 326 329 330 333 333 332 332 332 332 332 334
295 295 296 298 298 297 297 298 298 297 298 300 303 304 310 314 314 313 312 311 312 313 317 321 323 328 331 333 333 333 332 332 333
292 293 294 296 295 295 295 295 297 296 296 300 303 307 308 308 306 306 307 306 306 307 308 310 311 315 321 326 329 333 333 332 331
290 290 291 292 292 292 294 293 294 295 296 296 298 302 305 303 304 304 302 302 303 303 303 304 305 305 310 313 319 325 326 330 333
290 289 289 289 289 289 290 292 292 292 294 293 294 293 301 302 301 301 300 299 300 299 300 300 301 302 302 306 314 318 326 326 329
289 288 288 288 288 287 288 288 290 289 291 292 294 290 290 294 302 297 296 296 296 297 297 297 298 299 300 302 307 314 319 325 329
288 288 287 287 287 286 287 288 287 290 288 290 293 295 295 293 292 297 294 294 293 294 295 295 295 296 297 299 305 310 314 319 322
287 287 286 286 286 286 286 286 286 287 286 287 288 288 293 294 292 290 293 293 293 293 292 293 293 294 295 296 300 306 310 315 319
Wind_Speed
12 12 12 10 11 8 5 6 5 2 3 4 5 5 4 4 2 3 5 4 9 11 11 10 11 12 14 15 15 14 14 14 14
9 10 10 11 9 8 6 5 5 4 4 5 6 4 4 2 2 4 4 3 11 12 13 12 12 14 15 14 14 14 14 14 13
10 10 9 8 8 9 10 7 6 4 5 6 7 5 3 2 3 2 3 6 6 12 14 13 13 13 15 17 16 14 13 13 14
12 12 11 10 9 9 9 9 6 5 5 4 6 6 4 2 2 3 2 9 14 13 12 13 13 14 14 14 15 14 14 13 14
14 13 14 14 11 10 8 8 8 6 4 4 5 5 5 2 3 3 3 5 13 13 14 14 10 6 10 10 12 12 13 12 13
7 12 16 15 14 14 11 9 8 5 5 6 6 5 2 3 3 2 6 8 12 12 16 13 11 11 7 12 10 11 12 12 13
8 10 13 15 17 15 14 12 11 5 3 3 5 3 3 3 2 3 8 10 11 12 14 17 17 15 16 14 13 13 13 12 12
4 4 6 6 10 6 8 7 5 6 3 3 3 4 4 3 3 4 10 10 10 9 11 14 15 15 13 14 14 14 13 11 12
5 4 4 4 5 7 6 5 6 7 5 4 3 4 4 2 1 3 9 7 10 7 10 10 8 7 6 5 10 10 11 11 10
4 5 4 5 5 5 5 5 6 7 7 6 6 3 4 4 1 0 9 10 10 11 13 9 10 5 3 6 5 7 9 11 11
5 5 5 5 4 5 4 4 5 6 7 7 8 6 4 4 3 2 1 3 6 5 3 7 4 6 6 4 7 9 8 10 12
5 4 5 4 5 5 5 5 4 4 4 7 6 5 6 3 4 3 2 2 1 5 3 5 6 2 3 7 6 8 11 12 11
5 4 5 5 5 5 4 5 5 5 5 4 4 5 6 6 4 5 3 2 2 1 6 11 12 14 13 10 8 9 9 12 12
5 4 4 5 4 5 4 4 3 5 6 5 5 5 6 9 9 11 10 12 9 7 13 15 7 13 21 21 20 19 16 14 13
5 5 6 5 4 6 5 5 4 4 5 4 6 8 7 9 9 9 9 10 10 9 10 8 9 18 20 16 11 20 20 21 15
6 4 5 5 7 6 6 3 5 7 8 2 3 4 8 10 8 7 8 11 10 10 9 7 6 7 18 20 17 11 11 13 18
6 5 5 6 5 7 7 6 4 4 6 4 1 3 1 6 7 6 7 9 7 9 11 10 9 8 6 11 21 19 19 6 12
5 6 5 5 4 4 4 5 6 3 3 7 3 3 2 3 3 7 5 7 7 6 8 9 9 9 7 9 14 20 20 19 22
5 5 5 5 3 5 4 4 3 3 4 3 4 3 3 2 2 3 4 5 7 7 5 7 7 8 6 13 17 19 18 21 18
5 5 5 5 4 4 5 5 5 3 2 3 3 3 1 3 2 4 2 2 4 4 4 5 5 7 8 7 12 20 17 17 18
Wind_Direction
328 334 328 331 337 324 319 327 305 279 276 256 256 267 275 281 262 223 209 212 225 187 183 184 175 172 162 155 143 135 133 132 134
314 320 319 317 323 337 320 318 323 292 263 261 258 271 280 276 240 228 237 231 206 195 188 183 184 178 170 160 148 145 145 145 147
333 334 332 330 331 349 356 331 328 319 293 274 259 260 272 297 219 220 234 210 248 209 193 184 184 181 179 167 156 154 155 156 155
24 18 355 342 341 335 343 351 335 331 301 273 266 258 240 212 267 231 226 226 229 215 191 188 187 182 181 176 165 162 162 162 163
16 12 14 25 1 344 331 337 339 324 327 302 277 277 271 241 222 256 274 235 222 224 188 157 139 148 191 185 176 170 167 167 168
6 18 18 20 13 11 2 347 333 340 352 334 318 299 287 254 246 221 241 253 245 224 187 158 164 169 198 185 204 181 174 174 175
32 22 19 20 17 16 9 13 21 22 351 338 355 336 307 272 291 281 256 259 243 228 202 174 172 198 188 206 199 191 188 185 185
19 12 15 6 360 3 4 6 2 16 17 326 359 4 2 352 349 336 346 308 266 242 234 199 188 191 195 196 202 198 200 196 185
26 23 20 14 3 7 358 357 4 10 7 16 300 295 334 11 41 22 43 1 23 310 223 250 192 180 185 180 216 218 212 212 200
352 27 23 23 358 355 8 4 359 10 0 12 17 350 320 333 321 303 68 34 39 34 7 265 209 174 32 16 352 233 229 230 222
21 26 27 26 19 358 352 6 17 12 359 8 10 4 1 318 345 336 50 82 64 72 352 9 10 209 200 266 308 318 293 243 236
28 22 29 14 357 7 10 3 22 34 6 357 356 338 340 352 335 16 349 11 65 311 277 265 260 267 237 218 211 287 304 293 247
30 30 30 11 8 8 23 20 3 0 7 350 335 339 351 351 342 11 13 22 322 282 319 287 291 272 248 216 215 226 255 274 262
32 35 19 17 16 14 10 15 12 2 358 351 353 351 30 30 38 38 37 47 38 34 36 44 16 283 267 248 243 230 228 238 251
27 25 29 14 35 29 3 28 357 349 347 359 33 51 50 51 44 38 37 38 36 32 36 30 41 44 38 23 341 263 246 238 248
27 31 30 21 33 16 14 350 13 13 353 24 10 50 65 54 47 46 42 35 33 31 31 31 27 34 38 25 13 10 336 291 256
58 42 34 34 30 28 17 12 3 5 12 15 319 14 82 60 56 48 46 42 33 31 29 28 26 25 26 12 21 18 11 316 281
69 64 59 40 37 32 23 15 25 8 354 30 24 14 15 344 53 49 50 54 41 32 26 27 24 15 15 10 19 15 20 18 8
68 67 61 56 41 38 18 27 25 36 19 346 13 35 346 344 316 96 36 54 50 38 24 25 21 15 12 12 9 13 23 23 24
67 67 54 46 40 32 30 16 27 36 52 12 341 17 329 51 323 296 344 84 48 46 35 25 25 16 12 10 1 13 15 30 31